Weather History for PARC - October, 2013

Change the Weather History Date:

Saturday, October 26, 2013

  Actual Average (PFYU) Record (PFYU)
Temperature  
Mean Temperature 4 °F -  
Max Temperature 10 °F 15 °F - (-1)
Min Temperature -2 °F 2 °F - (-1)
Degree Days  
Heating Degree Days 61    
Moisture  
Dew Point 1 °F    
Average Humidity 88    
Maximum Humidity 100    
Minimum Humidity 66    
Precipitation  
Precipitation 0.00 in - - ()
Sea Level Pressure  
Sea Level Pressure 30.22 in    
Wind  
Wind Speed 0 mph (NNE)    
Max Wind Speed 6 mph    
Max Gust Speed -    
Visibility 10 miles    
Events      
Averages and records for this station are not official NWS values.
T = Trace of Precipitation, MM = Missing Value Source: NWS Daily Summary

Daily Weather History Graph

Daily Weather History Graph

Search for Another Location

Airport or City:

Trip Planner

Search our weather history database for the weather conditions in past years. The results will help you decide how hot, cold, wet, or windy it might be!

Date:

Astronomy

Oct. 26, 2013 Rise Set
Actual Time 9:31 AM AKDT 5:19 PM AKDT
Civil Twilight 8:29 AM AKDT 6:21 PM AKDT
Nautical Twilight 7:23 AM AKDT 7:27 PM AKDT
Astronomical Twilight 6:18 AM AKDT 8:32 PM AKDT
Moon 11:30 PM AKDT (10/26) 4:14 PM AKDT (10/26)
Length of Visible Light 9h 52m
Length of Day
7h 48m
Waning Gibbous, 51% of the Moon is Illuminated
Oct 26
Waning Gibbous
Oct 26
Last Quarter
Nov 3
New
Nov 9
First Quarter
Nov 17
Full

Hourly Weather History & Observations

Time (AKDT) Temp. Windchill Dew Point Humidity Pressure Visibility Wind Dir Wind Speed Gust Speed Precip Events Conditions
12:16 AM 8.6 °F - 8.6 °F 100% 30.02 in 10.0 mi Calm Calm - N/A   Clear
12:36 AM 8.6 °F - 6.8 °F 92% 30.02 in 10.0 mi Calm Calm - N/A   Clear
12:56 AM 6.8 °F - 1.4 °F 79% 30.03 in 10.0 mi Calm Calm - N/A   Clear
1:16 AM 6.8 °F - 5.0 °F 92% 30.04 in 10.0 mi Calm Calm - N/A   Clear
1:36 AM 6.8 °F - 1.4 °F 79% 30.04 in 10.0 mi Calm Calm - N/A   Clear
1:56 AM 5.0 °F -2.1 °F 1.4 °F 85% 30.04 in 7.0 mi NNE 3.5 mph - N/A   Clear
2:16 AM 5.0 °F - 5.0 °F 100% 30.05 in 10.0 mi Calm Calm - N/A   Clear
2:36 AM 3.2 °F - 1.4 °F 92% 30.05 in 10.0 mi Calm Calm - N/A   Clear
2:56 AM 3.2 °F - -2.2 °F 78% 30.06 in 10.0 mi Calm Calm - N/A   Clear
3:16 AM 3.2 °F - 3.2 °F 100% 30.06 in 10.0 mi Calm Calm - N/A   Clear
3:36 AM 3.2 °F - -2.2 °F 78% 30.07 in 10.0 mi Calm Calm - N/A   Clear
3:56 AM 1.4 °F - -0.4 °F 92% 30.08 in 10.0 mi Calm Calm - N/A   Clear
4:16 AM 1.4 °F - 1.4 °F 100% 30.08 in 10.0 mi Calm Calm - N/A   Clear
4:36 AM 1.4 °F - -2.2 °F 85% 30.09 in 10.0 mi Calm Calm - N/A   Clear
4:56 AM 1.4 °F - -0.4 °F 92% 30.09 in 10.0 mi Calm Calm - N/A   Clear
5:16 AM 1.4 °F - -0.4 °F 92% 30.10 in 10.0 mi Calm Calm - N/A   Clear
5:36 AM 1.4 °F - -2.2 °F 85% 30.10 in 10.0 mi Calm Calm - N/A   Clear
5:56 AM -0.4 °F - -0.4 °F 100% 30.11 in 6.0 mi Calm Calm - N/A   Clear
6:16 AM -0.4 °F - -2.2 °F 92% 30.12 in 9.0 mi Calm Calm - N/A   Clear
6:36 AM -0.4 °F - -5.8 °F 78% 30.12 in 10.0 mi Calm Calm - N/A   Clear
6:56 AM -0.4 °F - -0.4 °F 100% 30.13 in 10.0 mi Calm Calm - N/A   Clear
7:16 AM -0.4 °F - -2.2 °F 92% 30.14 in 10.0 mi Calm Calm - N/A   Clear
7:36 AM -0.4 °F - -5.8 °F 78% 30.14 in 10.0 mi Calm Calm - N/A   Clear
7:56 AM -2.2 °F - -2.2 °F 100% 30.15 in 10.0 mi Calm Calm - N/A   Clear
8:16 AM -0.4 °F - -5.8 °F 78% 30.16 in 10.0 mi Calm Calm - N/A   Clear
8:36 AM -0.4 °F - -5.8 °F 78% 30.16 in 10.0 mi Calm Calm - N/A   Clear
8:56 AM -0.4 °F - -2.2 °F 92% 30.17 in 10.0 mi Calm Calm - N/A   Clear
9:16 AM -2.2 °F - -5.8 °F 85% 30.18 in 10.0 mi Calm Calm - N/A   Clear
9:36 AM -2.2 °F - -4.0 °F 92% 30.18 in 10.0 mi Calm Calm - N/A   Clear
9:56 AM -2.2 °F - -9.4 °F 71% 30.20 in 10.0 mi Calm Calm - N/A   Clear
10:16 AM -2.2 °F - -2.2 °F 100% 30.21 in 10.0 mi Calm Calm - N/A   Clear
10:36 AM -0.4 °F - -2.2 °F 92% 30.21 in 10.0 mi Calm Calm - N/A   Clear
10:56 AM -2.2 °F - -5.8 °F 85% 30.22 in 8.0 mi Calm Calm - N/A   Clear
11:16 AM -0.4 °F - -0.4 °F 100% 30.23 in 10.0 mi Calm Calm - N/A   Clear
11:36 AM 1.4 °F - -0.4 °F 92% 30.23 in 10.0 mi Calm Calm - N/A   Clear
11:56 AM 3.2 °F - 1.4 °F 92% 30.24 in 10.0 mi Calm Calm - N/A   Clear
12:16 PM 3.2 °F - -0.4 °F 85% 30.25 in 10.0 mi Calm Calm - N/A   Clear
12:36 PM 5.0 °F - 3.2 °F 92% 30.25 in 10.0 mi Calm Calm - N/A   Clear
12:56 PM 5.0 °F - 5.0 °F 100% 30.26 in 10.0 mi Calm Calm - N/A   Clear
1:16 PM 6.8 °F - 5.0 °F 92% 30.27 in 10.0 mi Calm Calm - N/A   Clear
1:36 PM 6.8 °F - 3.2 °F 85% 30.27 in 10.0 mi Calm Calm - N/A   Clear
1:56 PM 6.8 °F - 3.2 °F 85% 30.28 in 10.0 mi Calm Calm - N/A   Clear
2:16 PM 8.6 °F - 8.6 °F 100% 30.28 in 10.0 mi Calm Calm - N/A   Clear
2:36 PM 10.4 °F - 5.0 °F 79% 30.29 in 10.0 mi Calm Calm - N/A   Clear
2:56 PM 10.4 °F - 6.8 °F 85% 30.30 in 10.0 mi Calm Calm - N/A   Clear
3:16 PM 10.4 °F - 5.0 °F 79% 30.30 in 10.0 mi Calm Calm - N/A   Clear
3:36 PM 10.4 °F - 6.8 °F 85% 30.30 in 10.0 mi Calm Calm - N/A   Clear
3:56 PM 10.4 °F - 6.8 °F 85% 30.30 in 10.0 mi Calm Calm - N/A   Clear
4:16 PM 10.4 °F - 5.0 °F 79% 30.30 in 10.0 mi Calm Calm - N/A   Clear
4:36 PM 10.4 °F - 5.0 °F 79% 30.31 in 10.0 mi Calm Calm - N/A   Clear
4:56 PM 10.4 °F - 6.8 °F 85% 30.32 in 10.0 mi Calm Calm - N/A   Clear
5:16 PM 10.4 °F - 6.8 °F 85% 30.33 in 10.0 mi Calm Calm - N/A   Clear
5:36 PM 8.6 °F - 3.2 °F 79% 30.33 in 10.0 mi Calm Calm - N/A   Clear
5:56 PM 8.6 °F - 6.8 °F 92% 30.33 in 10.0 mi Calm Calm - N/A   Clear
6:16 PM 8.6 °F - 5.0 °F 85% 30.33 in 10.0 mi Calm Calm - N/A   Clear
6:36 PM 8.6 °F - 1.4 °F 73% 30.33 in 10.0 mi Calm Calm - N/A   Clear
6:56 PM 5.0 °F - -2.2 °F 72% 30.34 in 10.0 mi Calm Calm - N/A   Clear
7:16 PM 3.2 °F - 3.2 °F 100% 30.35 in 10.0 mi Calm Calm - N/A   Clear
7:36 PM 5.0 °F - 3.2 °F 92% 30.36 in 10.0 mi Calm Calm - N/A   Clear
7:56 PM 1.4 °F - -2.2 °F 85% 30.36 in 10.0 mi Calm Calm - N/A   Clear
8:16 PM 5.0 °F - 3.2 °F 92% 30.36 in 10.0 mi Calm Calm - N/A   Clear
8:36 PM 3.2 °F - 1.4 °F 92% 30.37 in 10.0 mi Calm Calm - N/A   Clear
8:56 PM 1.4 °F - 1.4 °F 100% 30.38 in 10.0 mi Calm Calm - N/A   Clear
9:16 PM 1.4 °F - -7.6 °F 66% 30.38 in 10.0 mi Calm Calm - N/A   Clear
9:36 PM 1.4 °F - 1.4 °F 100% 30.37 in 10.0 mi Calm Calm - N/A   Clear
9:56 PM 1.4 °F - 1.4 °F 100% 30.37 in 10.0 mi Calm Calm - N/A   Clear
10:16 PM 1.4 °F - -2.2 °F 85% 30.38 in 10.0 mi Calm Calm - N/A   Clear
10:36 PM -0.4 °F - -5.8 °F 78% 30.38 in 10.0 mi Calm Calm - N/A   Clear
10:56 PM 1.4 °F - -0.4 °F 92% 30.38 in 10.0 mi Calm Calm - N/A   Clear
11:16 PM 1.4 °F - -0.4 °F 92% 30.38 in 10.0 mi Calm Calm - N/A   Clear
11:36 PM -0.4 °F -12.0 °F -2.2 °F 92% 30.38 in 10.0 mi NE 5.8 mph - N/A   Clear
11:56 PM 1.4 °F -9.9 °F -0.4 °F 92% 30.38 in 10.0 mi NNE 5.8 mph - N/A   Clear